星链-36156(STARLINK-36156)

导读

STARLINK-36156是美国太空探索技术公司SpaceX旗下星链Starlink星座的一颗卫星,于2025年12月10日发射入轨。星链项目旨在构建覆盖全球的低轨卫星互联网星座,为全球偏远地区、基础设施匮乏区域提供高速低延迟的宽带互联网接入服务。STARLINK-36156的加入进一步扩充了星链星座的组网规模,助力提升星座的全球覆盖能力与服务稳定性,推动全球互联网普及进程。

基本信息
目录编号:
67006
目录名称:
STARLINK-36156
国际标识:
2025-293D
轨道中心:
EARTH
卫星名称:
星链-36156
卫星全名:
星链-36156(STARLINK-36156)
卫星状态:
在轨 (已飞行269 天)
发射日期:
2025-12-10 UTC
国别 :
美国 (US)
星等 :
--
轨道信息
数据来源 国际轨道数据
星历时间: 2026-09-05T17:42:25+0800
8小时前
查看轨道信息
半长轴: 6950.181km
偏心率: 0.0003269
轨道倾角: 70.003°
近地点辐角 269.465°
升交点赤经 1.482°
平近点角 90.613°
近地点: 569.771km
远地点: 574.317km
周期: 96.107分钟
每日圈数: 14.983339
详细信息
固有亮度:
5
最大亮度:
2.5
卫星平台:
Starlink V1.0
覆盖范围:
全球
运营商:
太空探索技术公司
运营商所在国:
美国
制造商(研发单位):
太空探索技术公司
制造商所在国:
美国
使用方式:
暂无
卫星简介
Starlink 计划是 SpaceX 推出的全球卫星互联网项目,通过发射低轨道卫星,为全球尤其是偏远地区提供高速、低延迟的互联网服务。自 2019 年起,Starlink 已部署数千颗卫星,旨在缩小全球数字鸿沟,推动互联网普及。该项目还为军事、航空等行业提供通信支持,带来广泛经济效益。
2D轨道图
3D轨道图
轨道高度分析图
轨道倾角分析图
轨道综合分析图
查看轨道综合分析图
交会数据列表
事件ID 空间交会对象 最接近时刻(TCA) 交会距离 交会风险概率(CRP) 交会风险指数(CRI) 操作
CDM_260907-231006-054506-700621
HAWK-10B (60545)
2026-09-07T
23:10:09+0000
0.791 km
远距离
2.900149E-5 中风险 0.64
CDM_260905-233904-996106-700621
2026-09-05T
23:39:12+0000
2.874 km
极远距离
1.392901E-6 低风险 0.38